User: anonymous   Login
Location: Casaglia
(44.0333°N, 11.5167°E)
Time: 15:42:43
(UTC+00:00)
Language:

STARLINK-29 - Orbit

View from above orbital plane
View from above orbital plane
View from above satellite
View from above satellite

Ground track
Ground track

The orbit data is extracted from the following two-line orbital elements,

1 44243U 19029J   20225.40986935  .00083180  00000-0  29087-3 0  9992
2 44243  52.9985 191.6318 0001037 254.4447 105.6462 15.88595553 69303
Epoch (UTC): 12 August 2020 09:50:12
Eccentricity: 0.0001037
inclination: 52.9985°
perigee height: 305 km
apogee height: 307 km
right ascension of ascending node: 191.6318°
argument of perigee: 254.4447°
revolutions per day: 15.88595553
mean anomaly at epoch: 105.6462°
orbit number at epoch: 6930

The dashed part of the orbit path shows where the satellite is in the earth's shadow,  

DLR